TimeCST,TemperatureF,Dew PointF,Humidity,Sea Level PressureIn,VisibilityMPH,Wind Direction,Wind SpeedMPH,Gust SpeedMPH,PrecipitationIn,Events,Conditions,WindDirDegrees,DateUTC
12:12 AM,16.0,10.9,81,30.21,6.0,NNW,13.8,-,0.00,Snow,Light Snow,340,2014-02-09 06:12:00
12:53 AM,15.1,10.0,80,30.32,9.0,North,12.7,-,0.00,,Mostly Cloudy,350,2014-02-09 06:53:00
1:27 AM,14.0,9.0,80,30.21,10.0,North,8.1,-,N/A,,Mostly Cloudy,350,2014-02-09 07:27:00
1:39 AM,15.1,9.0,77,30.21,10.0,North,11.5,-,N/A,,Overcast,350,2014-02-09 07:39:00
1:53 AM,15.1,9.0,77,30.32,10.0,North,10.4,-,N/A,,Mostly Cloudy,350,2014-02-09 07:53:00
2:05 AM,14.0,9.0,80,30.21,10.0,North,10.4,-,N/A,,Overcast,350,2014-02-09 08:05:00
2:31 AM,14.0,8.1,77,30.21,10.0,North,13.8,-,N/A,,Scattered Clouds,350,2014-02-09 08:31:00
2:53 AM,12.9,6.1,74,30.34,10.0,North,10.4,-,N/A,,Mostly Cloudy,350,2014-02-09 08:53:00
3:53 AM,12.0,3.0,67,30.33,10.0,NNW,13.8,-,N/A,,Overcast,340,2014-02-09 09:53:00
4:53 AM,10.9,1.9,67,30.33,10.0,North,11.5,-,N/A,,Overcast,10,2014-02-09 10:53:00
5:53 AM,10.0,1.9,70,30.34,10.0,North,9.2,-,N/A,,Overcast,350,2014-02-09 11:53:00
6:53 AM,9.0,-0.0,67,30.37,10.0,North,11.5,-,N/A,,Overcast,360,2014-02-09 12:53:00
7:53 AM,8.1,-2.0,64,30.39,10.0,North,11.5,-,N/A,,Overcast,360,2014-02-09 13:53:00
8:40 AM,7.0,-0.0,73,30.28,2.0,North,8.1,-,0.00,Snow,Light Snow,350,2014-02-09 14:40:00
8:47 AM,6.8,-0.4,72,30.29,1.2,North,9.2,-,0.00,Snow,Light Snow,350,2014-02-09 14:47:00
8:48 AM,6.8,-0.4,72,30.29,1.0,North,8.1,-,0.00,Snow,Light Snow,350,2014-02-09 14:48:00
8:53 AM,7.0,-0.0,73,30.43,1.0,North,11.5,-,0.00,Snow,Light Snow,350,2014-02-09 14:53:00
9:02 AM,6.1,-0.0,76,30.29,0.8,North,9.2,-,0.00,Snow,Light Snow,360,2014-02-09 15:02:00
9:34 AM,7.0,1.0,77,30.31,0.5,NNW,9.2,-,0.00,Snow,Snow,340,2014-02-09 15:34:00
9:46 AM,7.0,1.0,77,30.30,1.0,North,10.4,-,0.00,Snow,Light Snow,360,2014-02-09 15:46:00
9:53 AM,7.0,1.0,77,30.43,1.2,North,10.4,-,0.00,Snow,Light Snow,10,2014-02-09 15:53:00
10:01 AM,7.0,1.0,77,30.29,0.8,North,8.1,-,0.00,Snow,Light Snow,10,2014-02-09 16:01:00
10:26 AM,7.0,1.0,77,30.31,1.2,North,9.2,-,0.00,Snow,Light Snow,360,2014-02-09 16:26:00
10:50 AM,8.6,1.4,73,30.33,2.5,North,8.1,-,0.00,Snow,Light Snow,350,2014-02-09 16:50:00
10:53 AM,8.1,1.0,73,30.45,2.5,NNW,8.1,-,0.00,Snow,Light Snow,340,2014-02-09 16:53:00
11:07 AM,8.1,1.0,73,30.33,1.2,North,10.4,-,0.00,Snow,Light Snow,350,2014-02-09 17:07:00
11:53 AM,8.1,1.9,76,30.44,1.2,North,6.9,-,0.00,Snow,Light Snow,360,2014-02-09 17:53:00
12:25 PM,10.0,1.9,70,30.31,3.0,NNW,5.8,-,0.00,Snow,Light Snow,340,2014-02-09 18:25:00
12:53 PM,10.0,1.9,70,30.43,6.0,North,9.2,-,0.00,Snow,Light Snow,10,2014-02-09 18:53:00
1:41 PM,10.9,1.9,67,30.30,9.0,North,5.8,-,0.00,Snow,Light Snow,350,2014-02-09 19:41:00
1:53 PM,10.9,1.9,67,30.42,9.0,North,9.2,-,0.00,,Overcast,10,2014-02-09 19:53:00
2:53 PM,12.0,1.9,64,30.40,9.0,NNE,9.2,-,0.00,Snow,Light Snow,20,2014-02-09 20:53:00
3:53 PM,10.9,1.9,67,30.42,10.0,NNW,8.1,-,0.00,,Overcast,340,2014-02-09 21:53:00
4:53 PM,10.9,1.9,67,30.44,10.0,North,9.2,-,N/A,,Overcast,360,2014-02-09 22:53:00
5:53 PM,10.0,1.9,70,30.43,10.0,North,9.2,-,N/A,,Overcast,10,2014-02-09 23:53:00
6:53 PM,10.0,1.9,70,30.47,10.0,NNE,6.9,-,N/A,,Overcast,20,2014-02-10 00:53:00
7:53 PM,9.0,1.0,70,30.49,10.0,North,8.1,-,N/A,,Overcast,10,2014-02-10 01:53:00
8:53 PM,7.0,-0.0,73,30.51,10.0,NNW,3.5,-,N/A,,Overcast,340,2014-02-10 02:53:00
9:53 PM,6.1,-0.0,76,30.50,10.0,North,4.6,-,N/A,,Overcast,350,2014-02-10 03:53:00
10:53 PM,3.0,-2.9,76,30.51,10.0,North,5.8,-,N/A,,Overcast,360,2014-02-10 04:53:00
11:53 PM,1.9,-2.9,80,30.52,10.0,NNW,3.5,-,N/A,,Overcast,330,2014-02-10 05:53:00